Location: Cornospital
(48.0620°N, 3.3837°W)
Time: 21:12:27
(UTC+00:00)

Resurs 01 Rocket - Pass Details

Date: 17 June 2021
Orbit: 635 x 643 km, 97.9° (Epoch: 02 August)

Event Time Altitude Azimuth Distance (km) Brightness Sun altitude
Exits shadow 21:27:05 - 191° (S) 2,888 4.6 -9.3°
Reaches altitude 10° 21:29:23 10° 201° (SSW) 2,018 3.9 -9.5°
Maximum altitude 21:33:18 32° 264° (W) 1,107 3.2 -9.9°
Drops below altitude 10° 21:37:16 10° 328° (NNW) 2,033 5.8 -10.3°
Sets 21:39:41 0° 338° (NNW) 2,947 6.8 -10.5°
